Regional Weather Roundup
Issued by NWS Newport/Morehead, NC

Current Version | Previous Version | Text Only | Print | Product List | Glossary Off
Versions: 1 2 3 4 5 6 7 8 9 10 11 12 13 14 15 16 17 18 19 20 21 22 23 24 25 26 27 28 29 30 31 32 33 34 35 36 37 38 39 40 41 42 43 44 45 46 47 48 49 50
000 ASUS42 KMHX 271013 RWRMHX WEATHER ROUNDUP FOR EASTERN NORTH CAROLINA NATIONAL WEATHER SERVICE NEWPORT/MOREHEAD CITY NC 600 AM EDT TUE SEP 27 2016 NOTE: "FAIR" INDICATES FEW OR NO CLOUDS BELOW 12,000 FEET WITH NO SIGNIFICANT WEATHER AND/OR OBSTRUCTIONS TO VISIBILITY NCZ015>017-031-032-045>047-102-103-271100- NORTH COAST CITY SKY/WX TMP DP RH WIND PRES REMARKS EDENTON CLOUDY 74 66 76 S6 29.98S ELIZABETH CITY MOCLDY 71 66 84 S6 29.97F KITTY HAWK CLOUDY 73 70 89 CALM 29.96F MANTEO CLOUDY 76 69 78 S9 29.98S $$ NCZ045>047-081-094-103-104-271100- CENTRAL COAST CITY SKY/WX TMP DP RH WIND PRES REMARKS FRISCO CLOUDY 77 66 68 SE10 29.97F $$ NCZ095-097-098-100-101-271100- SOUTHERN COAST CITY SKY/WX TMP DP RH WIND PRES REMARKS BEAUFORT PTCLDY 77 67 71 SE3 29.97S CEDAR ISLAND NOT AVBL JACKSONVILLE CLOUDY 70 67 90 NW6 29.96S PINEY ISLAND CLOUDY N/A N/A N/A CALM 29.97R WILMINGTON CLOUDY 70 68 93 CALM 29.96S $$ NCZ011>013-027>030-043-044-078>080-089-090>093-098-271100- COASTAL PLAIN CITY SKY/WX TMP DP RH WIND PRES REMARKS AHOSKIE CLOUDY 68 67 97 CALM 29.96S CLINTON CLOUDY 69 69 99 CALM 29.97F ELIZABETHTOWN CLOUDY 70 69 98 CALM 29.97S GOLDSBORO CLOUDY 69 69 100 SE3 29.95F GREENVILLE CLOUDY 70 68 94 CALM 29.99S HAVELOCK PTCLDY 70 66 87 CALM 29.97F KENANSVILLE PTCLDY 68 68 100 CALM 29.97S FOG KINSTON CLOUDY 69 68 96 CALM 29.98S NEW BERN PTCLDY 69 67 93 CALM 29.98S RICHLANDS CLOUDY 68 67 96 CALM 29.97F ROCKY MOUNT MOCLDY 68 68 100 CALM 29.96F WASHINGTON MOCLDY 68 67 96 CALM 29.97F WHITEVILLE NOT AVBL $$ AMZ130-135-150-152-154-156-158-170-250-252-270-ANZ085-086-088-633-658-670-271100- MARINE OBSERVATIONS STATION/POSITION TIME TEMP WIND PRES WAVE SWELL AIR SEA DIR/SP/G HT/PER HT/PER (UTC) (F) (DEG/KT/KT) (MB) (FT/S) (FT/S) CHESAPEAKE LIGHT NOT AVBL 64 E VA BEACH 0950 75 74 180/ 16/ 19 1014.3 4/ 5 2/ 8 DUCK 0942 76 76 200/ 7/ 9 1014.3 2 E DUCK 0941 76 N/A 3/ 5 2/15 OREGON INLET 0942 75 76 150/ 7/ 10 1014.9 13E OREGON INLT 1000 76 N/A 3/ 4 3/ 4 HATTERAS CG 0942 78 78 150/ 11/ 14 1014.7 DIAMOND BUOY 0950 79 85 160/ 14/ 16 1014.6 4/ 8 2/ 8 CAPE LOOKOUT 1000 79 130/ 9/ 10 1014.3 BEAUFORT LAB 0948 78 76 140/ 6/ 7 1014.1 30 SE NEW RVR IN 0908 80 83 130/ 12/ 16 1014.1 30 SE NEW RVR IN 0955 83 N/A 3/ 6 27 SE WRIGHTSVLE 0908 79 81 90/ 6/ 10 1014.3 5 SE WRIGHTSVLE 0908 80 80 130/ 6/ 10 1015.2 225 S CAPE HAT 0950 81 83 120/ 16/ 19 1012.8 5/ 5 2/13 41 SE CHARLESTON 0950 77 82 20/ 8/ 14 1012.9 3/ 9 3/ 9 $$

USA.gov is the U.S. government's official web portal to all federal, state and local government web resources and services.